When you browse on this site, cookies collect data to enhance your experience and personalize the content and advertising you see.
Visit our Privacy Policy to learn more. By continuing to use the site, you agree to this use of cookies and data.
  • în România
  • Lista ţărilor
  • Pe 7 zile
  • Temperatura apei
  • Meteo pe hartă
  • Widget-uri
  • user-avatar
    Intrare

    Meteo pe oră la Malaga

    Astăzi, 5 Iunie, Vineri

    Timp Temperatura Precipitaţii Vânt Presiune Umiditate
    00:00 +20°C° 0 mm 3 m/s 758 mmHg 71%
    01:00 +20°C° 0 mm 3 m/s 758 mmHg 72%
    02:00 +20°C° 0 mm 3 m/s 758 mmHg 73%
    03:00 +20°C° 0 mm 3 m/s 758 mmHg 74%
    04:00 +20°C° 0 mm 3 m/s 758 mmHg 75%
    05:00 +20°C° 0 mm 3 m/s 758 mmHg 76%
    06:00 +21°C° 0 mm 3 m/s 758 mmHg 77%
    07:00 +24°C° 0 mm 3 m/s 758 mmHg 70%
    08:00 +25°C° 0 mm 4 m/s 759 mmHg 64%
    09:00 +27°C° 0 mm 4 m/s 759 mmHg 58%
    10:00 +28°C° 0 mm 4 m/s 759 mmHg 55%
    11:00 +29°C° 0 mm 5 m/s 759 mmHg 51%
    12:00 +30°C° 0 mm 5 m/s 759 mmHg 47%
    13:00 +30°C° 0 mm 5 m/s 758 mmHg 46%
    14:00 +30°C° 0 mm 5 m/s 758 mmHg 45%
    15:00 +32°C° 0 mm 5 m/s 757 mmHg 43%
    16:00 +30°C° 0 mm 5 m/s 757 mmHg 45%
    17:00 +30°C° 0 mm 5 m/s 757 mmHg 46%
    18:00 +30°C° 0 mm 5 m/s 757 mmHg 47%
    19:00 +28°C° 0 mm 5 m/s 758 mmHg 52%
    20:00 +27°C° 0 mm 4 m/s 758 mmHg 57%
    21:00 +25°C° 0 mm 3 m/s 759 mmHg 62%
    22:00 +25°C° 0 mm 3 m/s 759 mmHg 64%
    23:00 +24°C° 0 mm 3 m/s 759 mmHg 65%

    Mâine, 6 Iunie, Sâmbătă

    Timp Temperatura Precipitaţii Vânt Presiune Umiditate
    00:00 +22°C° 0 mm 3 m/s 759 mmHg 67%
    01:00 +22°C° 0 mm 3 m/s 758 mmHg 69%
    02:00 +21°C° 0 mm 3 m/s 758 mmHg 71%
    03:00 +21°C° 0 mm 3 m/s 758 mmHg 73%
    04:00 +21°C° 0 mm 2 m/s 758 mmHg 71%
    05:00 +21°C° 0 mm 2 m/s 758 mmHg 69%
    06:00 +21°C° 0 mm 2 m/s 758 mmHg 67%
    07:00 +24°C° 0 mm 2 m/s 758 mmHg 58%
    08:00 +26°C° 0 mm 3 m/s 758 mmHg 49%
    09:00 +28°C° 0 mm 3 m/s 758 mmHg 40%
    10:00 +29°C° 0 mm 3 m/s 758 mmHg 37%
    11:00 +30°C° 0 mm 3 m/s 757 mmHg 34%
    12:00 +33°C° 0 mm 4 m/s 757 mmHg 31%
    13:00 +33°C° 0 mm 4 m/s 757 mmHg 32%
    14:00 +33°C° 0 mm 5 m/s 756 mmHg 32%
    15:00 +33°C° 0 mm 5 m/s 756 mmHg 33%
    16:00 +32°C° 0 mm 5 m/s 756 mmHg 34%
    17:00 +32°C° 0 mm 5 m/s 755 mmHg 36%
    18:00 +30°C° 0 mm 5 m/s 755 mmHg 38%
    19:00 +29°C° 0 mm 4 m/s 755 mmHg 42%
    20:00 +27°C° 0 mm 4 m/s 756 mmHg 47%
    21:00 +26°C° 0 mm 3 m/s 756 mmHg 51%
    22:00 +25°C° 0 mm 3 m/s 756 mmHg 52%
    23:00 +23°C° 0 mm 4 m/s 756 mmHg 53%

    Poimâine, 7 Iunie, Duminică

    Timp Temperatura Precipitaţii Vânt Presiune Umiditate
    00:00 +23°C° 0 mm 4 m/s 756 mmHg 54%
    01:00 +22°C° 0 mm 4 m/s 756 mmHg 55%
    02:00 +22°C° 0 mm 4 m/s 756 mmHg 55%
    03:00 +21°C° 0 mm 4 m/s 756 mmHg 55%
    04:00 +21°C° 0 mm 4 m/s 756 mmHg 56%
    05:00 +21°C° 0 mm 3 m/s 756 mmHg 57%
    06:00 +21°C° 0 mm 3 m/s 756 mmHg 59%
    07:00 +23°C° 0 mm 4 m/s 757 mmHg 54%
    08:00 +25°C° 0 mm 4 m/s 757 mmHg 49%
    09:00 +27°C° 0 mm 5 m/s 757 mmHg 45%
    10:00 +28°C° 0 mm 5 m/s 757 mmHg 43%
    11:00 +28°C° 0 mm 5 m/s 757 mmHg 42%
    12:00 +29°C° 0 mm 6 m/s 757 mmHg 41%
    13:00 +29°C° 0 mm 6 m/s 757 mmHg 43%
    14:00 +29°C° 0 mm 6 m/s 756 mmHg 44%
    15:00 +28°C° 0 mm 6 m/s 756 mmHg 46%
    16:00 +28°C° 0 mm 6 m/s 756 mmHg 46%
    17:00 +28°C° 0 mm 6 m/s 756 mmHg 47%
    18:00 +28°C° 0 mm 6 m/s 756 mmHg 47%
    19:00 +26°C° 0 mm 6 m/s 756 mmHg 50%
    20:00 +25°C° 0 mm 5 m/s 757 mmHg 54%
    21:00 +23°C° 0 mm 4 m/s 757 mmHg 58%
    22:00 +22°C° 0 mm 4 m/s 757 mmHg 60%
    23:00 +21°C° 0 mm 3 m/s 757 mmHg 63%

    8 Iunie, Luni

    Timp Temperatura Precipitaţii Vânt Presiune Umiditate
    00:00 +21°C° 0 mm 3 m/s 757 mmHg 65%
    01:00 +20°C° 0 mm 3 m/s 757 mmHg 67%
    02:00 +20°C° 0 mm 3 m/s 757 mmHg 69%
    03:00 +20°C° 0 mm 3 m/s 757 mmHg 71%
    04:00 +20°C° 0 mm 3 m/s 757 mmHg 72%
    05:00 +20°C° 0 mm 3 m/s 757 mmHg 73%
    06:00 +20°C° 0 mm 3 m/s 757 mmHg 74%
    07:00 +22°C° 0 mm 4 m/s 757 mmHg 66%
    08:00 +23°C° 0 mm 4 m/s 757 mmHg 59%
    09:00 +26°C° 0 mm 5 m/s 757 mmHg 52%
    10:00 +27°C° 0 mm 5 m/s 757 mmHg 47%
    11:00 +27°C° 0 mm 6 m/s 757 mmHg 43%
    12:00 +28°C° 0 mm 7 m/s 757 mmHg 39%
    13:00 +28°C° 0 mm 7 m/s 757 mmHg 35%
    14:00 +29°C° 0 mm 8 m/s 757 mmHg 32%
    15:00 +29°C° 0 mm 8 m/s 756 mmHg 28%
    16:00 +28°C° 0 mm 7 m/s 756 mmHg 29%
    17:00 +28°C° 0 mm 7 m/s 756 mmHg 30%
    18:00 +27°C° 0 mm 6 m/s 756 mmHg 31%
    19:00 +24°C° 0 mm 6 m/s 757 mmHg 36%
    20:00 +23°C° 0 mm 5 m/s 757 mmHg 41%
    21:00 +21°C° 0 mm 4 m/s 758 mmHg 46%
    22:00 +21°C° 0 mm 4 m/s 758 mmHg 48%
    23:00 +20°C° 0 mm 4 m/s 758 mmHg 51%

    9 Iunie, Marţi

    Timp Temperatura Precipitaţii Vânt Presiune Umiditate
    00:00 +20°C° 0 mm 4 m/s 758 mmHg 53%
    01:00 +20°C° 0 mm 3 m/s 758 mmHg 54%
    02:00 +19°C° 0 mm 3 m/s 758 mmHg 55%
    03:00 +19°C° 0 mm 3 m/s 758 mmHg 56%
    04:00 +19°C° 0 mm 2 m/s 758 mmHg 57%
    05:00 +19°C° 0 mm 2 m/s 758 mmHg 57%
    06:00 +20°C° 0 mm 2 m/s 759 mmHg 58%
    07:00 +21°C° 0 mm 2 m/s 759 mmHg 55%
    08:00 +24°C° 0 mm 2 m/s 759 mmHg 53%
    09:00 +25°C° 0 mm 2 m/s 759 mmHg 50%
    10:00 +26°C° 0 mm 2 m/s 759 mmHg 48%
    11:00 +27°C° 0 mm 2 m/s 759 mmHg 47%
    12:00 +28°C° 0 mm 2 m/s 759 mmHg 46%
    13:00 +28°C° 0 mm 2 m/s 759 mmHg 47%
    14:00 +28°C° 0 mm 2 m/s 759 mmHg 48%
    15:00 +27°C° 0 mm 2 m/s 758 mmHg 49%
    16:00 +27°C° 0 mm 2 m/s 758 mmHg 50%
    17:00 +27°C° 0 mm 2 m/s 758 mmHg 52%
    18:00 +26°C° 0 mm 2 m/s 758 mmHg 54%
    19:00 +25°C° 0 mm 2 m/s 759 mmHg 60%
    20:00 +24°C° 0 mm 2 m/s 759 mmHg 67%
    21:00 +22°C° 0 mm 1 m/s 760 mmHg 73%
    22:00 +22°C° 0 mm 1 m/s 760 mmHg 76%
    23:00 +21°C° 0 mm 1 m/s 760 mmHg 78%

    10 Iunie, Miercuri

    Timp Temperatura Precipitaţii Vânt Presiune Umiditate
    00:00 +21°C° 0 mm 1 m/s 760 mmHg 81%
    01:00 +20°C° 0 mm 2 m/s 759 mmHg 82%
    02:00 +19°C° 0 mm 2 m/s 759 mmHg 83%
    03:00 +19°C° 0 mm 2 m/s 759 mmHg 84%
    04:00 +19°C° 0 mm 2 m/s 759 mmHg 81%
    05:00 +21°C° 0 mm 1 m/s 759 mmHg 78%
    06:00 +21°C° 0 mm 1 m/s 759 mmHg 75%
    07:00 +23°C° 0 mm 2 m/s 759 mmHg 68%
    08:00 +24°C° 0 mm 2 m/s 759 mmHg 60%
    09:00 +26°C° 0 mm 3 m/s 759 mmHg 53%
    10:00 +27°C° 0 mm 3 m/s 759 mmHg 51%
    11:00 +27°C° 0 mm 3 m/s 759 mmHg 49%
    12:00 +28°C° 0 mm 4 m/s 759 mmHg 47%
    13:00 +28°C° 0 mm 4 m/s 758 mmHg 46%
    14:00 +28°C° 0 mm 4 m/s 758 mmHg 44%
    15:00 +28°C° 0 mm 4 m/s 758 mmHg 43%
    16:00 +28°C° 0 mm 3 m/s 758 mmHg 46%
    17:00 +27°C° 0 mm 3 m/s 757 mmHg 48%
    18:00 +26°C° 0 mm 3 m/s 757 mmHg 51%
    19:00 +25°C° 0 mm 2 m/s 758 mmHg 56%
    20:00 +24°C° 0 mm 2 m/s 758 mmHg 61%
    21:00 +22°C° 0 mm 1 m/s 758 mmHg 67%
    22:00 +22°C° 0 mm 1 m/s 758 mmHg 69%
    23:00 +20°C° 0 mm 2 m/s 758 mmHg 71%
    Arată mai mult